Temp
62 61 61 64 64 64 64 65 65 64 64 64 65 64 65 65 67 65 64 70 68 71 68 64 65 64 64 61 60 57 50 47 50 49 55 56 56 56 55 53 53 54 53 54 55
60 61 61 61 63 63 64 64 64 64 64 64 64 64 65 65 64 63 71 73 72 71 65 64 62 63 60 58 57 53 48 51 54 54 54 55 56 55 54 52 52 51 51 51 53
60 60 60 60 61 63 63 63 63 63 63 63 63 64 64 62 63 65 73 72 72 69 65 64 63 62 57 56 55 52 51 54 56 57 56 55 54 54 53 50 54 53 49 48 50
60 60 60 61 61 62 63 63 63 63 63 63 63 64 63 61 55 63 70 70 70 66 65 63 62 57 53 53 54 52 53 55 56 56 54 54 55 53 51 58 55 55 52 49 49
60 60 60 60 61 62 62 63 63 63 63 63 63 64 62 57 62 65 69 69 65 64 62 61 58 56 53 52 53 51 52 54 55 54 54 53 54 54 51 54 53 50 49 49 50
60 59 59 59 60 61 62 62 62 62 63 63 63 64 60 54 63 64 63 64 63 62 59 60 58 57 54 52 51 51 51 53 53 53 52 52 51 51 53 47 48 47 48 48 49
60 59 59 59 60 60 61 61 62 62 62 63 65 64 57 61 63 62 65 59 59 60 60 58 59 56 55 51 52 50 49 50 50 51 51 51 49 48 54 47 47 45 47 47 48
61 60 59 59 59 60 61 61 61 62 62 64 65 59 58 61 61 62 62 60 61 61 60 58 58 57 53 53 51 46 46 45 50 50 50 51 45 54 49 46 48 45 44 45 46
60 60 60 59 59 59 60 61 61 63 64 64 56 57 56 64 59 60 60 60 59 59 59 63 57 51 51 47 45 44 43 42 46 49 48 49 47 52 46 45 47 46 44 44 46
60 60 60 59 59 60 60 61 61 62 62 63 64 54 57 55 57 59 58 60 57 56 56 55 50 47 44 45 41 42 40 40 42 48 45 43 45 54 50 45 49 49 46 44 45
60 60 60 60 59 60 56 58 58 55 55 57 55 54 55 56 58 56 57 58 56 54 49 48 47 43 47 46 44 43 41 42 43 46 44 43 46 52 56 45 48 46 45 44 44
60 60 60 59 60 60 52 51 47 49 48 52 52 53 54 55 52 55 58 55 51 47 46 45 43 48 48 45 45 42 40 39 43 42 42 41 42 49 51 55 55 52 47 45 45
58 59 59 59 59 54 49 47 50 47 44 51 52 51 53 56 52 52 57 51 48 44 43 43 45 46 47 42 42 40 39 38 41 39 39 36 35 39 46 48 51 52 50 45 45
58 58 59 59 54 48 48 49 50 47 38 46 49 52 53 53 49 53 53 52 45 45 43 43 44 46 43 44 43 38 41 40 39 36 32 38 36 37 45 48 50 51 45 47 44
58 58 60 58 48 48 49 49 47 50 27 47 47 54 52 50 48 48 51 49 45 44 44 44 41 40 41 43 44 41 40 38 36 34 29 32 28 38 37 43 50 52 45 45 44
58 58 58 52 47 48 49 46 49 40 28 43 47 46 46 47 47 47 47 51 47 44 41 42 42 44 44 40 40 41 38 36 31 29 22 37 35 34 37 43 47 49 47 44 40
58 58 55 52 47 48 47 47 37 28 43 43 43 43 42 43 45 46 44 42 41 37 36 38 39 39 42 40 39 38 37 29 26 23 31 28 27 43 43 44 49 53 47 44 40
58 57 55 53 51 50 47 43 27 35 39 42 42 41 42 44 43 43 40 39 42 39 35 37 40 39 41 42 39 35 38 30 22 25 37 26 26 41 44 51 45 44 43 40 39
57 52 51 50 51 50 46 31 37 38 43 43 41 37 37 41 43 39 37 37 43 46 44 36 36 36 37 38 41 35 33 37 28 9 18 35 37 40 41 42 40 41 38 39 39
52 50 50 53 52 51 35 41 39 44 45 43 43 44 36 39 39 38 37 41 43 46 52 44 39 36 35 36 34 35 38 31 28 21 17 38 40 43 42 44 45 44 40 41 39
51 45 50 54 55 45 35 35 39 45 47 44 41 40 41 40 39 35 38 42 45 42 46 43 43 35 35 32 32 32 31 31 33 28 23 30 37 41 45 46 47 46 41 40 39
49 41 47 55 41 41 38 37 43 42 43 45 42 43 41 40 37 34 37 46 47 43 40 43 39 33 36 30 32 32 35 37 31 27 20 22 37 44 45 45 42 45 41 40 38
46 45 47 51 36 37 37 36 41 39 44 43 41 42 43 42 40 39 45 47 45 45 41 43 35 29 31 29 30 32 33 34 33 30 31 24 37 46 42 41 41 42 40 39 38
45 38 41 43 44 42 41 39 38 40 44 42 42 43 39 38 46 43 37 40 42 45 46 49 37 35 35 41 34 29 31 35 37 33 33 34 40 48 52 49 47 41 39 39 38
47 41 41 34 37 40 43 41 40 38 39 43 39 43 42 40 42 42 43 42 41 43 41 43 37 38 41 44 38 33 35 35 32 36 34 40 40 46 52 53 54 54 54 47 35
46 42 42 41 41 39 39 39 39 43 40 38 40 40 44 41 43 41 43 43 42 30 35 35 36 38 36 41 36 35 38 40 40 39 38 39 38 51 54 55 53 54 53 50 42
51 51 44 43 39 37 37 38 40 43 46 47 44 42 41 43 49 51 51 43 42 38 32 31 29 25 29 37 32 25 35 39 41 44 43 36 44 52 49 49 49 50 50 49 49
MSLP
1020.50 1020.17 1019.85 1019.44 1019.13 1018.73 1018.30 1017.89 1017.45 1017.10 1016.85 1016.58 1016.33 1016.14 1015.85 1015.52 1015.18 1015.23 1014.78 1014.51 1014.69 1014.87 1015.13 1015.16 1015.24 1015.38 1015.66 1016.41 1016.78 1017.23 1018.08 1018.75 1018.39 1018.28 1017.38 1017.56 1018.01 1018.58 1019.16 1019.78 1020.31 1020.43 1020.76 1021.12 1021.56
1020.82 1020.42 1020.07 1019.72 1019.30 1018.93 1018.51 1018.08 1017.66 1017.21 1016.84 1016.55 1016.24 1016.09 1016.03 1015.68 1015.27 1014.95 1014.38 1014.39 1014.43 1014.47 1014.82 1014.96 1015.24 1015.44 1016.05 1016.64 1017.04 1017.43 1018.02 1017.95 1017.68 1017.63 1017.50 1017.60 1018.08 1018.61 1019.38 1019.80 1020.12 1020.42 1020.83 1021.32 1021.66
1021.03 1020.69 1020.30 1019.88 1019.44 1018.92 1018.53 1018.15 1017.74 1017.28 1016.84 1016.49 1016.23 1016.01 1015.85 1015.80 1015.55 1014.50 1014.42 1014.50 1014.41 1014.41 1014.49 1014.73 1015.01 1015.33 1016.12 1016.60 1017.05 1017.24 1017.48 1017.37 1017.14 1017.13 1017.26 1017.60 1018.05 1018.47 1019.11 1019.56 1018.99 1019.21 1020.09 1021.24 1021.76
1021.19 1020.87 1020.44 1019.97 1019.46 1018.89 1018.38 1017.98 1017.65 1017.22 1016.76 1016.43 1016.07 1015.82 1015.80 1015.87 1015.64 1014.47 1014.44 1014.38 1014.39 1014.49 1014.52 1014.73 1015.00 1015.58 1016.37 1016.74 1016.94 1017.20 1017.22 1017.13 1016.92 1016.93 1017.22 1017.43 1017.63 1018.16 1018.57 1017.76 1018.13 1018.58 1019.31 1020.56 1021.12
1021.33 1020.97 1020.53 1020.02 1019.52 1018.96 1018.33 1017.76 1017.38 1016.97 1016.60 1016.26 1015.99 1015.70 1015.59 1015.91 1015.37 1014.90 1014.64 1014.48 1014.42 1014.59 1014.88 1014.87 1015.27 1015.65 1016.31 1016.72 1016.96 1017.05 1017.20 1017.14 1016.95 1017.12 1017.25 1017.46 1017.52 1017.93 1017.43 1017.52 1018.20 1018.85 1019.54 1019.96 1020.49
1021.30 1021.03 1020.63 1020.13 1019.56 1018.96 1018.27 1017.59 1017.06 1016.69 1016.31 1016.01 1015.78 1015.73 1015.70 1015.87 1014.72 1014.59 1014.59 1014.68 1014.78 1014.79 1015.15 1015.23 1015.46 1015.67 1016.27 1016.73 1017.00 1017.14 1017.20 1017.12 1017.12 1017.24 1017.46 1017.76 1017.74 1018.01 1016.90 1017.48 1018.35 1018.85 1019.04 1019.44 1019.81
1021.27 1020.92 1020.54 1020.07 1019.51 1018.86 1018.09 1017.34 1016.73 1016.25 1016.01 1015.70 1015.65 1015.59 1015.60 1014.97 1014.41 1014.63 1014.47 1014.86 1014.94 1014.98 1015.35 1015.60 1015.58 1016.04 1016.49 1017.01 1017.15 1017.22 1017.39 1017.12 1017.18 1017.16 1017.45 1017.78 1018.28 1017.42 1016.67 1017.63 1018.00 1018.38 1018.85 1019.29 1019.55
1021.02 1020.85 1020.46 1019.93 1019.35 1018.69 1017.83 1016.91 1016.42 1015.88 1015.59 1015.56 1015.54 1015.58 1015.21 1014.59 1014.61 1014.61 1014.82 1015.06 1015.11 1015.17 1015.51 1015.78 1015.74 1016.16 1016.70 1017.19 1017.47 1017.63 1017.76 1017.71 1017.09 1017.29 1017.21 1017.76 1016.96 1016.17 1016.49 1017.47 1017.70 1017.99 1018.51 1018.87 1018.96
1020.95 1020.64 1020.30 1019.81 1019.26 1018.53 1017.58 1016.51 1015.90 1015.55 1015.43 1015.50 1015.77 1015.53 1015.09 1014.60 1014.72 1014.77 1014.91 1015.24 1015.42 1015.59 1015.82 1015.91 1016.19 1017.10 1017.24 1017.58 1018.01 1018.17 1018.00 1017.93 1017.41 1016.97 1017.44 1017.64 1016.58 1015.64 1016.17 1016.97 1016.91 1017.14 1017.53 1017.98 1018.47
1020.97 1020.53 1020.18 1019.78 1019.10 1018.36 1017.39 1015.98 1015.58 1015.59 1015.55 1015.57 1015.71 1016.10 1015.09 1014.80 1014.81 1014.81 1014.95 1015.14 1015.52 1015.83 1016.04 1016.32 1017.06 1017.54 1018.11 1018.19 1017.99 1017.94 1018.17 1018.01 1017.71 1017.14 1017.52 1017.67 1016.25 1015.20 1015.47 1016.10 1015.44 1015.66 1016.36 1016.97 1017.40
1020.70 1020.56 1020.11 1019.74 1019.16 1018.35 1017.56 1016.10 1016.35 1016.45 1016.14 1015.52 1015.19 1015.03 1014.79 1014.87 1014.90 1014.99 1015.00 1015.32 1015.58 1016.04 1016.61 1017.08 1017.67 1017.29 1017.17 1017.26 1017.13 1017.32 1017.77 1017.96 1017.31 1017.26 1017.62 1017.02 1015.98 1015.15 1014.22 1014.71 1014.01 1014.16 1014.85 1015.51 1015.88
1020.59 1020.46 1020.11 1019.69 1019.18 1018.50 1018.16 1018.47 1018.73 1019.14 1017.61 1015.68 1015.51 1015.23 1014.74 1014.70 1015.06 1015.09 1015.11 1015.59 1016.02 1016.48 1016.97 1017.71 1017.09 1016.22 1016.60 1016.98 1017.39 1017.67 1018.07 1017.89 1017.56 1017.57 1018.01 1017.20 1015.75 1014.71 1013.85 1012.40 1012.26 1012.36 1013.12 1014.13 1015.42
1020.33 1020.34 1020.07 1019.52 1019.04 1018.73 1019.03 1019.29 1019.33 1019.43 1018.90 1016.01 1015.17 1014.90 1014.67 1014.81 1014.77 1014.82 1015.13 1015.47 1016.04 1016.84 1017.26 1017.46 1016.26 1016.18 1016.56 1017.15 1017.61 1017.88 1018.16 1018.11 1018.13 1018.12 1018.13 1017.80 1015.50 1014.00 1012.07 1011.69 1010.92 1010.91 1011.63 1012.87 1013.54
1019.97 1019.92 1019.93 1019.30 1019.19 1019.63 1019.47 1019.43 1019.48 1019.62 1018.97 1016.18 1015.20 1014.40 1014.66 1014.73 1015.01 1014.81 1014.94 1015.22 1015.98 1016.20 1017.25 1017.18 1016.24 1016.41 1016.81 1017.15 1017.48 1018.08 1017.49 1018.05 1018.55 1019.22 1019.36 1018.48 1014.18 1013.89 1012.31 1011.35 1010.34 1009.50 1010.74 1011.30 1012.21
1019.62 1019.64 1019.67 1019.65 1019.99 1019.76 1019.69 1019.48 1019.61 1019.64 1018.30 1015.46 1014.98 1014.87 1014.79 1015.08 1015.25 1015.29 1015.26 1015.15 1015.61 1016.15 1016.77 1015.65 1016.21 1016.64 1016.92 1016.74 1017.11 1017.60 1017.83 1018.60 1019.12 1019.65 1019.81 1018.70 1017.73 1012.71 1012.33 1011.51 1009.95 1008.63 1009.59 1010.71 1011.79
1019.34 1019.34 1019.44 1019.76 1019.98 1019.77 1019.63 1019.55 1019.61 1019.84 1017.36 1015.10 1014.73 1014.84 1015.16 1015.18 1015.28 1015.56 1015.58 1015.61 1015.87 1016.16 1016.37 1016.15 1016.23 1016.40 1016.49 1017.17 1017.49 1017.93 1018.42 1019.18 1020.01 1020.21 1019.13 1016.32 1016.14 1012.47 1011.74 1010.07 1009.42 1008.61 1009.00 1010.25 1011.48
1018.88 1019.06 1019.30 1019.81 1019.41 1019.21 1019.51 1019.77 1020.22 1018.43 1016.25 1014.89 1014.60 1015.00 1015.27 1015.40 1015.54 1015.65 1015.86 1016.05 1016.17 1016.53 1016.38 1016.15 1016.13 1016.23 1016.46 1017.44 1018.07 1018.27 1019.17 1020.19 1020.09 1020.09 1017.13 1015.66 1015.42 1010.59 1009.83 1008.98 1008.29 1008.19 1008.81 1010.01 1011.14
1018.16 1018.62 1018.76 1019.03 1019.35 1019.15 1019.35 1020.16 1018.92 1016.45 1015.42 1014.59 1014.55 1014.86 1015.05 1014.97 1015.21 1015.64 1015.87 1016.12 1015.73 1015.80 1016.18 1016.17 1015.87 1015.95 1016.08 1016.50 1017.22 1018.31 1018.85 1019.91 1019.25 1019.53 1015.99 1015.24 1012.28 1008.42 1007.94 1007.40 1007.44 1008.19 1008.68 1009.78 1010.73
1017.58 1018.34 1018.32 1018.17 1018.90 1019.41 1019.27 1018.87 1015.38 1015.34 1014.54 1014.36 1014.67 1014.93 1014.83 1014.57 1015.08 1015.65 1015.66 1015.09 1014.23 1014.30 1014.59 1014.96 1014.93 1015.68 1016.17 1016.40 1016.89 1018.38 1018.42 1017.71 1018.56 1019.66 1017.17 1012.14 1008.94 1007.65 1007.13 1006.96 1007.49 1007.91 1008.89 1009.54 1010.18
1016.65 1017.15 1016.65 1016.95 1018.10 1019.08 1019.25 1015.93 1014.56 1013.49 1013.15 1013.22 1013.53 1013.31 1013.91 1014.22 1014.91 1015.19 1014.64 1013.32 1013.16 1012.45 1011.86 1013.17 1014.79 1015.19 1016.37 1016.87 1017.10 1017.08 1017.28 1018.21 1018.57 1018.37 1016.16 1009.60 1006.53 1006.04 1006.24 1006.10 1006.56 1007.27 1007.63 1008.33 1009.25
1015.47 1016.20 1015.45 1016.06 1017.55 1018.34 1016.93 1015.33 1014.26 1013.29 1012.90 1012.96 1012.70 1012.90 1012.91 1013.35 1013.56 1013.72 1012.81 1012.18 1012.05 1012.35 1012.65 1013.24 1014.19 1015.48 1016.62 1016.64 1016.29 1017.73 1017.59 1017.60 1017.41 1016.53 1015.16 1011.57 1003.84 1003.07 1003.61 1004.37 1005.29 1005.68 1006.30 1007.66 1008.44
1014.63 1015.20 1015.38 1015.27 1016.42 1015.58 1014.28 1013.53 1013.09 1012.68 1012.87 1012.69 1012.22 1011.90 1012.07 1012.33 1012.57 1012.81 1012.29 1011.25 1010.72 1011.54 1012.89 1012.95 1013.51 1014.70 1014.57 1015.10 1015.75 1015.94 1015.56 1015.84 1016.05 1015.01 1014.11 1012.36 999.80 1001.55 1002.13 1003.14 1004.13 1004.89 1006.03 1006.77 1007.64
1013.38 1014.04 1014.94 1014.41 1013.85 1013.71 1013.45 1013.25 1012.75 1012.25 1011.86 1011.66 1011.74 1011.19 1011.10 1011.20 1011.92 1011.09 1010.49 1009.92 1010.82 1011.19 1011.42 1012.46 1013.40 1014.64 1013.52 1014.95 1015.08 1014.94 1014.66 1013.96 1013.35 1012.58 1010.54 1011.11 1000.37 1000.78 1001.61 1002.69 1003.44 1004.19 1005.20 1006.08 1006.87
1012.26 1013.47 1014.15 1013.49 1012.20 1011.99 1012.00 1012.33 1012.25 1011.32 1011.23 1011.09 1010.77 1010.94 1010.94 1010.59 1010.25 1009.60 1009.94 1010.12 1010.39 1010.52 1010.46 1010.98 1012.12 1012.28 1011.88 1010.46 1011.68 1012.97 1012.67 1011.93 1011.81 1010.19 1009.16 1005.55 1002.55 999.70 1000.66 1002.21 1002.94 1003.49 1004.18 1004.77 1005.61
1010.92 1010.28 1010.59 1011.49 1011.23 1011.16 1011.00 1010.13 1010.47 1010.54 1010.46 1010.33 1010.17 1010.02 1009.97 1010.05 1009.51 1009.09 1009.25 1010.10 1010.42 1010.65 1011.12 1011.11 1010.77 1010.66 1009.98 1009.11 1010.90 1010.95 1010.75 1010.20 1010.01 1006.99 1005.77 1002.46 1003.86 998.93 998.17 1001.41 1000.64 1001.77 1001.91 1002.64 1004.37
1009.40 1009.27 1009.79 1008.92 1009.34 1010.08 1009.82 1008.97 1008.83 1008.92 1009.42 1008.93 1008.66 1008.70 1008.97 1008.46 1007.79 1007.22 1008.26 1008.88 1009.22 1010.88 1011.28 1011.26 1010.00 1010.16 1009.35 1008.54 1009.50 1010.22 1008.22 1008.49 1006.81 1003.92 1005.14 1003.28 1001.72 996.87 999.85 1000.19 999.97 999.83 1000.39 1001.56 1002.43
1008.47 1007.84 1008.34 1006.55 1008.01 1008.12 1006.78 1007.17 1007.07 1007.53 1007.21 1007.04 1006.69 1007.31 1007.37 1006.34 1006.19 1005.96 1007.13 1008.21 1008.95 1009.32 1010.28 1011.26 1010.85 1010.14 1008.37 1008.41 1009.46 1009.34 1004.70 1006.17 1005.13 1001.98 1003.05 1001.41 997.27 997.02 998.53 999.17 998.13 998.72 999.72 999.87 1000.33
Wind_Speed
18 20 20 20 20 20 20 19 18 17 14 13 13 11 9 8 5 2 3 5 4 2 1 1 2 2 3 3 3 3 5 1 3 5 5 4 4 1 1 5 3 5 4 1 14
18 18 20 21 21 20 19 19 18 17 15 13 12 10 11 9 1 3 1 2 3 2 3 3 2 3 4 2 3 5 4 5 4 4 4 1 4 6 4 3 5 3 2 4 16
18 19 20 20 21 21 20 18 17 17 16 13 11 9 8 7 3 5 3 4 3 3 4 3 4 3 4 1 2 2 4 4 3 4 3 1 2 6 5 5 9 11 8 13 13
18 19 19 20 21 21 21 19 16 16 16 14 10 7 8 2 5 2 1 3 3 4 3 3 4 4 3 2 1 2 1 3 2 3 3 3 4 4 8 7 1 7 12 15 18
17 18 18 19 21 22 22 21 18 16 15 14 9 5 3 1 7 4 4 5 3 2 4 3 3 4 4 2 1 3 2 3 3 4 4 1 8 7 8 9 2 6 11 18 16
17 17 17 17 18 21 22 22 20 17 16 13 6 5 3 4 2 2 2 2 3 2 2 3 5 3 5 3 3 2 3 4 4 3 3 4 4 1 4 5 5 10 16 16 17
17 18 17 18 19 20 21 22 20 18 15 8 4 1 3 12 3 2 4 2 2 1 4 1 4 1 4 3 0 1 4 4 5 4 4 6 8 11 6 5 8 11 11 12 15
16 18 19 18 19 21 22 22 20 17 8 2 2 1 7 1 2 2 3 3 4 5 5 2 3 6 2 4 5 2 3 2 3 5 2 5 10 10 4 7 11 11 10 13 17
17 18 20 19 20 21 24 26 18 5 1 2 1 4 8 3 2 2 1 4 3 3 4 3 5 3 3 4 5 5 4 4 8 8 3 6 11 7 6 8 12 12 13 14 13
16 17 19 19 21 22 27 23 7 2 1 0 1 3 2 2 2 2 2 4 4 3 3 5 5 3 4 3 7 7 4 5 7 4 5 5 18 16 8 9 18 14 13 14 16
12 16 18 18 21 22 15 6 7 4 5 7 4 4 3 1 1 1 2 4 3 4 4 2 2 10 13 9 2 3 5 8 5 4 3 9 19 18 20 10 19 14 14 16 20
11 15 17 18 19 23 2 5 2 3 9 4 5 6 3 3 2 4 4 6 5 7 5 4 13 9 5 4 5 3 3 8 8 1 5 9 20 16 17 22 15 18 16 16 12
7 12 16 17 19 5 3 3 1 3 2 9 5 4 4 7 6 6 10 4 5 6 7 9 4 4 7 4 6 5 7 5 8 5 4 6 10 8 8 11 17 15 11 11 18
6 6 13 17 2 4 2 1 0 1 3 9 4 4 3 4 4 1 4 5 2 10 9 8 3 6 4 7 8 5 5 3 4 3 5 4 17 4 8 10 10 12 10 14 16
7 4 9 5 4 0 1 1 1 1 7 5 3 0 1 4 4 1 1 2 6 7 8 9 7 4 5 9 8 7 2 3 1 3 3 4 6 5 4 7 18 11 9 10 10
9 7 2 1 2 3 3 3 2 6 11 4 3 4 3 1 1 1 1 4 1 4 3 6 2 6 6 4 1 5 3 4 4 2 2 10 11 5 7 10 9 9 6 7 8
11 10 6 2 3 1 2 3 3 7 4 5 5 3 1 5 4 6 6 5 7 4 5 1 5 2 3 5 3 3 6 6 6 3 11 6 4 13 7 11 14 13 5 7 7
12 10 7 4 1 3 3 5 10 7 8 2 4 3 7 8 5 7 6 5 7 2 3 4 10 10 6 7 8 6 9 8 11 7 22 4 11 10 16 16 8 7 7 4 7
12 3 4 5 7 1 2 7 12 11 9 9 3 4 6 4 5 5 9 7 10 16 11 8 9 2 1 3 6 6 7 4 1 2 6 7 12 6 7 15 5 12 6 10 8
6 5 6 10 11 3 2 18 9 10 7 5 14 12 9 9 8 8 10 7 7 17 10 4 7 5 3 2 1 5 4 4 2 4 9 19 31 18 13 15 12 12 15 13 7
5 4 2 14 8 3 10 10 6 7 7 9 10 7 9 10 9 8 8 4 7 4 6 5 6 3 4 10 12 3 3 0 2 5 7 16 13 8 8 11 13 13 8 10 9
4 6 6 14 9 5 16 10 9 6 4 9 5 11 11 10 8 7 11 11 9 10 11 7 5 7 15 0 2 1 7 10 7 8 5 2 38 3 4 10 7 10 8 7 9
4 4 2 10 9 11 2 5 6 8 13 12 12 9 8 9 8 10 15 8 11 11 12 9 2 5 10 1 3 7 9 7 2 2 18 8 36 6 6 6 8 9 9 8 8
4 5 3 7 7 13 16 9 9 7 17 3 5 7 4 7 14 10 4 3 5 8 4 16 10 14 22 19 5 7 10 19 20 19 12 33 34 42 30 20 12 10 11 13 12
6 4 9 10 16 18 15 8 21 12 7 12 7 21 14 12 17 20 16 9 6 5 4 11 17 16 26 32 8 2 13 13 20 28 27 32 24 39 36 22 27 20 22 15 10
7 4 4 7 14 24 23 21 29 25 12 11 20 12 24 27 25 20 16 16 15 1 8 2 16 12 26 28 12 15 31 22 29 36 27 31 37 46 29 25 28 32 27 20 18
4 5 5 10 12 14 22 29 28 24 18 23 22 18 19 26 28 30 16 4 9 9 10 7 6 6 24 20 4 7 34 28 30 37 25 32 46 38 28 26 29 27 22 24 22
Wind_Direction
7 5 2 2 1 360 356 353 350 349 350 347 344 333 327 330 308 253 211 176 175 326 158 239 88 64 70 79 78 136 70 194 231 162 255 150 161 42 66 121 241 195 170 308 136
4 2 360 357 356 355 355 351 346 341 341 343 338 334 325 327 354 274 217 199 232 176 132 111 85 115 60 72 31 83 105 207 194 211 272 218 183 178 163 159 244 252 206 124 146
1 359 358 355 350 348 349 348 343 337 334 338 332 332 326 313 334 235 159 313 318 156 123 115 114 98 86 80 6 179 163 191 232 225 205 216 254 161 158 233 222 208 170 164 167
357 356 352 348 347 344 343 343 340 335 327 330 326 336 335 300 228 181 310 351 357 131 119 84 56 76 85 98 307 111 248 188 220 213 174 208 153 228 193 231 112 225 169 167 180
351 349 345 344 342 341 339 337 335 330 324 325 315 334 71 10 261 347 342 355 92 72 43 103 62 131 131 155 135 153 214 249 259 224 243 349 243 240 242 235 191 144 162 182 188
345 344 341 338 336 335 334 330 329 326 322 319 298 281 104 242 162 3 329 358 44 74 56 46 164 191 112 137 150 178 227 258 275 244 234 213 274 62 244 128 162 175 191 192 193
338 340 338 336 334 331 328 323 322 318 317 306 269 253 126 235 139 63 89 78 31 80 117 106 133 86 136 126 141 94 328 312 224 211 228 161 285 235 226 166 195 207 205 199 202
333 334 334 332 330 327 323 318 318 311 305 235 200 118 241 81 169 98 119 67 50 38 91 109 112 107 79 121 30 74 62 14 193 170 208 147 263 267 165 170 230 221 212 208 209
326 330 330 329 327 324 322 314 314 308 102 135 186 133 268 137 161 129 90 142 86 52 58 76 63 80 46 89 3 0 247 232 303 202 141 177 268 238 172 202 246 228 218 213 212
320 324 326 325 325 325 322 308 283 27 32 72 54 27 256 231 129 117 37 123 116 111 59 50 52 72 44 102 234 223 242 250 242 217 196 207 257 269 224 209 242 234 221 210 211
315 320 325 323 324 325 337 358 12 347 24 202 193 214 213 157 90 81 148 99 95 72 177 10 113 217 212 203 202 167 198 238 243 237 212 232 253 259 274 226 247 236 223 213 218
316 319 321 321 319 322 335 79 153 165 309 263 246 277 231 179 225 214 131 155 157 197 122 34 235 213 155 167 179 168 221 261 284 266 193 274 265 264 252 261 251 247 232 219 216
310 320 320 319 316 359 20 116 112 145 214 290 215 207 202 149 218 231 152 144 157 175 186 180 224 102 145 166 165 210 197 231 237 337 242 312 264 241 271 249 267 245 238 201 209
261 305 323 322 47 328 41 335 184 202 31 269 244 268 100 137 262 171 202 144 189 205 166 233 253 159 169 221 147 237 208 230 297 24 256 2 295 225 244 266 261 259 197 216 206
239 270 318 7 292 321 270 299 261 72 293 265 203 258 93 164 126 302 304 67 188 182 133 238 163 166 189 222 158 228 115 130 115 224 16 255 275 229 8 263 264 271 216 223 205
235 212 300 114 117 278 340 344 57 49 246 290 140 177 139 180 125 112 90 39 99 143 270 258 338 172 200 56 76 137 89 61 63 87 241 229 203 160 182 209 255 267 234 209 207
214 209 144 162 220 134 44 52 39 189 282 232 200 162 196 195 205 173 168 181 177 124 237 239 210 174 163 103 31 90 64 321 315 328 253 137 215 258 233 233 221 237 243 205 206
200 184 202 182 182 137 92 64 223 205 209 56 125 122 193 160 218 176 147 214 230 119 127 196 267 180 184 195 179 172 166 169 250 261 288 145 245 271 226 246 239 245 244 224 219
165 180 187 202 154 97 132 212 204 181 193 170 116 183 231 243 194 156 209 202 203 175 193 178 267 90 287 144 152 183 192 177 71 133 296 233 259 281 226 255 246 248 234 246 221
181 189 198 164 147 143 100 236 212 193 158 153 203 184 200 204 172 188 178 192 223 200 205 202 305 196 153 134 311 176 156 92 346 263 264 269 276 270 215 235 242 248 229 226 224
175 207 182 144 144 186 221 224 234 233 167 173 210 231 211 197 204 206 220 227 205 149 160 151 171 218 126 208 166 124 235 2 207 160 204 282 270 204 207 204 216 233 234 216 214
173 209 164 151 187 197 222 189 185 217 205 251 201 215 209 194 216 227 217 222 158 151 160 196 163 242 239 23 351 248 199 177 193 239 243 157 274 21 184 216 211 237 201 219 218
209 191 215 187 205 208 264 276 226 183 197 201 220 189 195 195 245 195 231 183 161 157 166 168 193 290 269 327 8 217 198 224 320 333 228 196 261 189 130 226 218 217 240 238 229
201 170 165 218 237 224 209 223 230 217 238 219 222 179 160 224 226 257 229 168 191 205 167 165 177 202 242 260 131 182 205 217 222 244 230 236 263 276 261 274 259 249 243 228 216
212 210 171 191 225 229 221 207 233 226 216 207 250 228 212 241 238 237 246 251 204 205 190 172 224 217 239 256 246 228 252 218 220 239 237 257 249 258 271 266 271 265 267 267 213
246 192 193 192 209 217 216 228 235 242 176 208 228 202 221 231 227 251 227 228 230 85 180 216 251 234 248 252 232 243 257 256 252 253 262 267 268 259 279 284 280 274 275 274 246
235 217 203 179 202 208 212 219 229 231 236 233 221 222 225 226 225 241 257 226 220 182 185 168 194 201 250 255 220 232 244 256 267 263 257 264 262 274 272 264 260 266 268 263 264